SL-14 DEB, 46466

Orbit data source: Space-Track

SL-14 DEB, 46466 is space debris in LEO originally from a launch on Thu, 15 Aug 1991 UTC launched from the Plesetsk Missile And Space Complex (PKMTR). Debris objects in space refer to the collection of defunct objects orbiting the Earth. Examples of debris include non-operational satellites, rocket bodies, and fragments generated from explosions, collisions, or faulty payload assembly.

Loading next visibility...
Identifier
46466, 1991-056DB
Orbit
LEO
Country
Flag of CISCIS
Related business
Manufacturer
Unknown
Mission
Spacecraft
Bus & Motor
Unknown
Mass
Unknown
Launch date (UTC)
1991-08-15 (34 years ago)
Launch vehicle
Unknown
Launch site
Plesetsk Missile And Space Complex (PKMTR)
Object type
Payload
Rocket body
Debris
Shape & HBR
Unknown shape, 0.1 m
Radar Cross Section
Small (<0.1 m²)

Expand to show TLE details & history
Last TLE update: 2 days ago

TLE from 2 days ago
0 SL-14 DEB
1 46466U 91056DB  25286.47816333  .00001025  00000-0  24410-2 0  9996
2 46466  82.5680 309.6546 0001654 328.7364  31.3663 13.22124694250114
Epoch: 2025-10-13T11:28Z
TLE epoch observation values (Epoch: 2025-10-13T11:28:33.311Z)
Latitude
-0°
Longitude
115.23543°
Altitude
1,178.363 km
Speed
7.265 km/s
True Right ascension
20h 38m 37s
True Declination
0° 00' 00"
Sunlit
Object was in daylight at epoch
Visualization orbit readout
Latitude
Unknown
Longitude
Unknown
Altitude
Unknown
Speed
Unknown
Apparent Right ascension
Unknown
Apparent Declination
Unknown
Sunlit
N/A
Visualization observer readout
Local Sidereal Time
17:58:15
Azimuth
Unknown
Elevation
Unknown
Doppler factor
Unknown
Orbital elements
Apogee altitude
1,175.101 km
Perigee altitude
1,172.603 km
Semi-major axis
7,551.989 km
Eccentricity
0.00017
Inclination
82.568°
RAAN
309.6546°
Arg. of periapsis
328.7364°
True anomaly
31.37617°
Mean anomaly
31.3663°
Eccentric anomaly
31.37123°
Mean motion
3.30713 °/min
Orbital period
108.86 mins
BSTAR
0.002441
Loading maneuver chart data...
Computing Atmospheric mass density...
Loading historical data...
Loading historical data...
Loading historical data...
Loading historical data...
Loading historical data...
Loading historical data...
Loading historical data...

Documentation

Showing up to 5 results
|